Flag for Germany Weather past 2 weeks in Weimar, Thuringia, Germany

Now
46 °F

Sunny.


Feels Like: 42 °F
Forecast: 48 / 65 °F
Wind: 9 mph from Southwest

Location: Erfurt-Bindersleben

Current Time: May 28, 2015 at 8:16:57 AM

Latest Report: May 28, 2015 at 7:20 AM


Visibility: 10 mi

Pressure: 30.04 "Hg

Humidity: 71%

Dew point: 37 °F

Location of WeimarLocation

Historic Weather in Weimar — Graph

°F

Weimar temperature yesterday

Maximum temperature yesterday: 54 °F (at 2:20 PM)
Minimum temperature yesterday: 45 °F (at 3:50 AM)
Average temperature yesterday: 49 °F

Past Weeks' High & Low Weather Summary

 TemperatureHumidityPressure
High70 °F (May 18, 4:50 PM)100% (May 21, 6:20 AM)30.33 "Hg (May 21, 6:20 AM)
Low36 °F (May 22, 2:20 AM)27% (May 19, 2:50 PM)29.65 "Hg (May 19, 1:20 AM)
Average53 °F64%30.05 "Hg
* Reported May 13 7:20 AM — May 28 7:20 AM, Weimar, Weather by CustomWeather, © 2015

Note: Actual official high and low records may vary slightly from our data, if they occured in-between our weather recording intervals... More about our weather records

Advertising

Weimar weather history for previous 24 hours

 ConditionsComfort  
Time TempWeatherWind HumidityBarometerVisibility
7:20 AM
Thu, May 28
46 °FSunny.9 mph71%30.04 "Hg10 mi
6:50 AM45 °FSunny.9 mph76%30.04 "Hg10 mi
6:20 AM43 °FSunny.8 mph76%30.07 "Hg10 mi
5:20 AM41 °FClear.10 mph81%30.07 "Hg10 mi
4:50 AM41 °FClear.10 mph81%30.07 "Hg10 mi
4:20 AM41 °FClear.10 mph81%30.07 "Hg10 mi
3:50 AM41 °FClear.9 mph81%30.09 "Hg10 mi
3:20 AM39 °FClear.9 mph93%30.09 "Hg10 mi
2:50 AM39 °FClear.8 mph87%30.09 "Hg10 mi
2:20 AM39 °FClear.8 mph87%30.09 "Hg10 mi
1:50 AM39 °FClear.7 mph87%30.12 "Hg10 mi
1:20 AM41 °FClear.7 mph87%30.12 "Hg10 mi
12:50 AM41 °FClear.7 mph81%30.12 "Hg10 mi
12:20 AM43 °FClear.8 mph81%30.12 "Hg10 mi
11:50 PM
Wed, May 27
45 °FClear.8 mph76%30.12 "Hg10 mi
11:20 PM45 °FClear.8 mph76%30.15 "Hg10 mi
10:50 PM45 °FClear.7 mph76%30.15 "Hg10 mi
10:20 PM46 °FClear.8 mph76%30.15 "Hg10 mi
9:50 PM48 °FSunny.7 mph71%30.15 "Hg10 mi
9:20 PM50 °FSunny.5 mph71%30.15 "Hg10 mi
8:50 PM50 °FSunny.5 mph71%30.15 "Hg10 mi
8:20 PM50 °FSunny.3 mph67%30.15 "Hg10 mi
7:50 PM50 °FPartly sunny.3 mph71%30.18 "HgN/A
7:20 PM52 °FPartly sunny.3 mph67%30.18 "HgN/A
6:50 PM52 °FBroken clouds.5 mph62%30.18 "HgN/A
6:20 PM52 °FPartly sunny.5 mph62%30.18 "HgN/A
5:50 PM52 °FBroken clouds.7 mph58%30.18 "HgN/A
5:20 PM52 °FBroken clouds.10 mph58%30.18 "HgN/A
4:50 PM54 °FBroken clouds.10 mph54%30.18 "HgN/A
4:20 PM54 °FBroken clouds.9 mph54%30.18 "HgN/A
3:50 PM54 °FBroken clouds.9 mph58%30.18 "HgN/A
3:20 PM54 °FBroken clouds.9 mph58%30.18 "HgN/A
2:50 PM52 °FBroken clouds.12 mph58%30.18 "HgN/A
2:20 PM54 °FBroken clouds.10 mph58%30.21 "HgN/A
1:50 PM52 °FBroken clouds.10 mph62%30.21 "HgN/A
1:20 PM52 °FBroken clouds.9 mph62%30.21 "HgN/A
12:50 PM52 °FBroken clouds.10 mph58%30.21 "HgN/A
12:20 PM52 °FBroken clouds.9 mph58%30.21 "HgN/A
11:50 AM52 °FScattered clouds.10 mph58%30.21 "HgN/A
11:20 AM52 °FScattered clouds.12 mph62%30.21 "HgN/A
10:50 AM52 °FPartly sunny.12 mph62%30.21 "HgN/A
10:20 AM50 °FPartly sunny.9 mph67%30.21 "HgN/A
9:50 AM48 °FPartly sunny.10 mph66%30.21 "HgN/A
9:20 AM48 °FPartly sunny.9 mph71%30.21 "HgN/A
8:50 AM48 °FPartly sunny.12 mph66%30.21 "HgN/A
8:20 AM46 °FPartly sunny.8 mph76%30.21 "HgN/A
Weather by CustomWeather, © 2015

See weather overviewHow to use our weather pages